User: anonymous   Login
Location: Unspecified
(0.0000°N, 0.0000°E)
Time: 00:20:43
(UTC+01:00)
Language:

Transit 2A - Orbit

View from above orbital plane
View from above orbital plane
View from above satellite
View from above satellite

Ground track
Ground track

The orbit data is extracted from the following two-line orbital elements,

1 00045U 60007A   16041.96786054  .00000049  00000-0  39338-4 0  9992
2 00045  66.6929 246.3984 0252552  30.2932 331.2492 14.33456078895013
Epoch (UTC): 10 February 2016 23:13:43
Eccentricity: 0.0252552
inclination: 66.6929°
perigee height: 599 km
apogee height: 961 km
right ascension of ascending node: 246.3984°
argument of perigee: 30.2932°
revolutions per day: 14.33456078
mean anomaly at epoch: 331.2492°
orbit number at epoch: 89501

The dashed part of the orbit path shows where the satellite is in the earth's shadow,  

DLR